Home   Weather   Utrecht   Past weeks

Flag for Netherlands Past Weather in Utrecht, Netherlands — Yesterday and Last 2 Weeks

43 °F

Light fog.

Feels Like: 41 °F
Forecast: 51 / 60 °F
Wind: 3 mph from South

Location: Amsterdam Schiphol Airport

Current Time: Oct 26, 2016 at 9:41:55 AM

Latest Report: Oct 26, 2016 at 8:55 AM

Visibility: 0 mi

Pressure: 30.36 "Hg

Humidity: 100%

Dew Point: 43 °F

Location of UtrechtLocation

Past Weather in Utrecht — Graph


Utrecht Temperature Yesterday

Maximum temperature yesterday: 50 °F (at 10:55 AM)
Minimum temperature yesterday: 46 °F (at 12:25 AM)
Average temperature yesterday: 48 °F

High & Low Weather Summary for the Past Weeks

High66 °F (Oct 16, 2:55 PM)100% (Oct 15, 12:25 AM)30.33 "Hg (Oct 15, 12:25 AM)
Low34 °F (Oct 23, 4:55 AM)54% (Oct 23, 2:55 PM)29.65 "Hg (Oct 15, 1:25 AM)
Average49 °F86%30.00 "Hg
* Reported Oct 11 8:25 AM — Oct 26 8:25 AM, Utrecht, Weather by CustomWeather, © 2016

Note: Actual official high and low records may vary slightly from our data, if they occured in-between our weather recording intervals... More about our weather records


Utrecht Weather History for the Previous 24 Hours

Scroll right to see more
Time TempWeatherWind HumidityBarometerVisibility
8:25 AM
Wed, Oct 26
43 °FLight fog.6 mph100%30.33 "Hg1 mi
7:55 AM43 °FLight fog.5 mph100%30.33 "Hg1 mi
7:25 AM41 °FFog.2 mph100%30.33 "Hg1 mi
6:55 AM43 °FFog.6 mph100%30.33 "Hg4 mi
6:25 AM43 °FFog.3 mph93%30.33 "Hg4 mi
5:55 AM45 °FFog.2 mph93%30.33 "Hg4 mi
5:25 AM46 °FPassing clouds.No wind93%30.33 "Hg5 mi
4:55 AM46 °FOvercast.No wind93%30.33 "Hg4 mi
4:25 AM46 °FOvercast.2 mph93%30.33 "Hg4 mi
3:55 AM46 °FOvercast.6 mph87%30.33 "Hg4 mi
3:25 AM48 °FPassing clouds.2 mph87%30.33 "Hg5 mi
2:55 AM48 °FOvercast.5 mph87%30.33 "Hg5 mi
2:25 AM48 °FOvercast.6 mph87%30.33 "Hg5 mi
1:55 AM46 °FMostly cloudy.1 mph93%30.33 "HgN/A
1:25 AM46 °FMostly cloudy.1 mph93%30.33 "Hg5 mi
12:55 AM48 °FMostly cloudy.2 mph87%30.33 "Hg4 mi
12:25 AM48 °FMostly cloudy.5 mph87%30.33 "Hg4 mi
11:55 PM
Tue, Oct 25
48 °FOvercast.2 mph87%30.33 "Hg5 mi
11:25 PM48 °FOvercast.3 mph87%30.33 "Hg5 mi
10:55 PM48 °FOvercast.5 mph87%30.33 "Hg6 mi
10:25 PM46 °FPassing clouds.3 mph93%30.33 "HgN/A
9:55 PM46 °FPassing clouds.3 mph93%30.33 "HgN/A
9:25 PM46 °FPassing clouds.1 mph93%30.33 "HgN/A
8:55 PM46 °FPassing clouds.2 mph93%30.30 "HgN/A
8:25 PM46 °FPassing clouds.3 mph93%30.30 "HgN/A
7:55 PM48 °FPassing clouds.2 mph87%30.30 "HgN/A
7:25 PM48 °FMostly cloudy.3 mph87%30.30 "HgN/A
6:55 PM48 °FMostly cloudy.5 mph87%30.27 "HgN/A
6:25 PM48 °FOvercast.5 mph87%30.27 "HgN/A
5:55 PM48 °FOvercast.3 mph87%30.27 "HgN/A
5:25 PM50 °FOvercast.3 mph82%30.27 "HgN/A
4:55 PM50 °FOvercast.3 mph82%30.27 "HgN/A
4:25 PM50 °FOvercast.6 mph82%30.24 "HgN/A
3:55 PM50 °FMore clouds than sun.6 mph82%30.24 "HgN/A
3:25 PM50 °FMore clouds than sun.5 mph82%30.24 "HgN/A
2:55 PM50 °FOvercast.6 mph88%30.24 "HgN/A
2:25 PM50 °FOvercast.6 mph82%30.24 "HgN/A
1:55 PM50 °FOvercast.6 mph82%30.24 "HgN/A
1:25 PM50 °FOvercast.2 mph82%30.21 "HgN/A
12:55 PM50 °FOvercast.2 mph82%30.21 "HgN/A
12:25 PM50 °FPartly sunny.3 mph82%30.21 "HgN/A
11:55 AM50 °FPartly sunny.2 mph82%30.21 "HgN/A
11:25 AM50 °FPartly sunny.5 mph82%30.21 "HgN/A
10:55 AM50 °FPartly sunny.3 mph82%30.18 "Hg4 mi
10:25 AM48 °FPartly sunny.3 mph94%30.18 "Hg5 mi
9:55 AM48 °FPartly sunny.6 mph87%30.18 "Hg4 mi
9:25 AM48 °FLow clouds.5 mph87%30.18 "Hg4 mi
Weather by CustomWeather, © 2016

See weather overviewHow to use our weather pages